Fallon NAS, NV

1:36 AM PST on November 23, 2017 (GMT -0800)
Fallon Naval Air Station

Weather History for KNFL - August, 2013

Change the Weather History Date:

Monday, August 26, 2013

  Actual Average Record
Temperature  
Mean Temperature 71 °F -  
Max Temperature 90 °F 87 °F 102 °F (2010)
Min Temperature 53 °F 50 °F 36 °F (1954)
Cooling Degree Days 6    
Growing Degree Days 21 (Base 50)    
Moisture  
Dew Point 37 °F    
Average Humidity 31    
Maximum Humidity 55    
Minimum Humidity 13    
Precipitation  
Precipitation 0.00 in - - ()
Sea Level Pressure  
Sea Level Pressure 29.94 in    
Wind  
Wind Speed 4 mph (WSW)    
Max Wind Speed 13 mph    
Max Gust Speed 18 mph    
Visibility 6 miles    
Events      
Averages and records for this station are not official NWS values.
T = Trace of Precipitation, MM = Missing Value Source: NWS Daily Summary

Daily Weather History Graph

Daily Weather History Graph

Search for Another Location

Airport or City:

Trip Planner

Search our weather history database for the weather conditions in past years. The results will help you decide how hot, cold, wet, or windy it might be!

Date:

Astronomy

Aug. 26, 2013 Rise Set
Actual Time 6:17 AM PDT 7:34 PM PDT
Civil Twilight 5:50 AM PDT 8:02 PM PDT
Nautical Twilight 5:16 AM PDT 8:35 PM PDT
Astronomical Twilight 4:41 AM PDT 9:10 PM PDT
Moon 10:50 PM PDT (8/26) 12:22 PM PDT (8/26)
Length of Visible Light 14h 12m
Length of Day
13h 16m
Waning Gibbous, 65% of the Moon is Illuminated
Aug 26
Waning Gibbous
Aug 28
Last Quarter
Sep 5
New
Sep 12
First Quarter
Sep 19
Full

Hourly Weather History & Observations

Time (PDT) Temp. Dew Point Humidity Pressure Visibility Wind Dir Wind Speed Gust Speed Precip Events Conditions
12:56 AM 64.0 °F 37.0 °F 37% 29.94 in 10.0 mi Calm Calm - N/A   Overcast
1:56 AM 59.0 °F 37.9 °F 46% 29.94 in 10.0 mi West 4.6 mph - N/A   Overcast
2:56 AM 61.0 °F 39.0 °F 44% 29.95 in 6.0 mi SW 3.5 mph - N/A   Haze
3:56 AM 55.0 °F 39.0 °F 55% 29.95 in 10.0 mi South 4.6 mph - N/A   Overcast
4:56 AM 55.0 °F 36.0 °F 49% 29.96 in 10.0 mi SSE 5.8 mph - N/A   Clear
5:56 AM 53.1 °F 35.1 °F 50% 29.97 in 10.0 mi SSW 3.5 mph - N/A   Clear
6:15 AM 53.6 °F 35.6 °F 51% 30.07 in 4.0 mi South 3.5 mph - N/A   Smoke
6:56 AM 53.6 °F 37.4 °F 54% 29.98 in 4.0 mi Calm Calm - N/A   Smoke
7:56 AM 60.8 °F 37.4 °F 42% 29.99 in 5.0 mi Calm Calm - N/A   Smoke
8:56 AM 66.2 °F 39.2 °F 37% 29.99 in 5.0 mi Calm Calm - N/A   Smoke
9:56 AM 73.4 °F 46.4 °F 38% 29.99 in 5.0 mi South 6.9 mph - N/A   Smoke
10:56 AM 80.6 °F 42.8 °F 26% 29.97 in 6.0 mi South 8.1 mph - N/A   Smoke
11:56 AM 82.0 °F 39.0 °F 22% 29.96 in 8.0 mi SE 8.1 mph - N/A   Scattered Clouds
12:56 PM 84.0 °F 39.9 °F 21% 29.94 in 10.0 mi South 6.9 mph - N/A   Mostly Cloudy
1:56 PM 86.0 °F 37.0 °F 18% 29.92 in 10.0 mi West 9.2 mph - N/A   Mostly Cloudy
2:56 PM 88.0 °F 36.0 °F 16% 29.90 in 10.0 mi WSW 12.7 mph 18.4 mph N/A   Overcast
3:56 PM 89.1 °F 33.1 °F 14% 29.88 in 8.0 mi WSW 6.9 mph - N/A   Overcast
4:56 PM 89.1 °F 33.1 °F 14% 29.87 in 8.0 mi NW 11.5 mph - N/A   Overcast
5:56 PM 87.8 °F 30.2 °F 13% 29.86 in 5.0 mi NW 10.4 mph - N/A   Smoke
6:56 PM 84.2 °F 30.2 °F 14% 29.86 in 3.0 mi NW 8.1 mph - N/A   Smoke
7:25 PM 78.8 °F 30.2 °F 17% 29.94 in 2.0 mi NW 4.6 mph - N/A   Smoke
7:56 PM 78.8 °F 35.6 °F 21% 29.87 in 2.0 mi WNW 9.2 mph - N/A   Smoke
8:56 PM 75.2 °F 35.6 °F 24% 29.88 in 2.0 mi WNW 9.2 mph - N/A   Smoke
9:22 PM 75.2 °F 37.4 °F 25% 29.98 in 4.0 mi West 5.8 mph - N/A   Smoke
9:56 PM 71.6 °F 37.4 °F 29% 29.91 in 4.0 mi Calm Calm - N/A   Smoke
10:56 PM 69.8 °F 35.6 °F 28% 29.92 in 5.0 mi Calm Calm - N/A   Smoke
11:56 PM 66.9 °F 35.1 °F 31% 29.93 in 6.0 mi Calm Calm - N/A   Smoke